Torna al catalogo

STARLINK-35856

AttivoComunicazioniVLEO
NORAD 67013·PAYLOAD·🇺🇸 United States

Lanciato Dec 10, 2025 da Vandenberg Space Force Base

Loading…

Prossimi Passaggi (prossime 24 ore)

TLE

AggiornatoSource: CelesTrak SupGP

Epoca: Sep 14, 2026, 21:05 UTC

1 67013C 25293L   26257.87895833 -.00051183  00000+0 -42898-2 0  2570
2 67013  70.0021 337.5680 0003568 274.0276  79.3481 14.98350708    19

Traccia STARLINK-35856 in tempo reale con AllMySat

Download on the App Store